• In Italy
  • List of Countries
  • For 7 days
  • Water Temperature
  • Satellite Maps
  • Weather Map
  • Weather Widgets
  • user-avatar
    Login

    Hourly Weather Nashavar

    Today, 20 September, Thursday

    Time Temperature Precipitation Wind Pressure Humidity
    00:00 +31°C° 0 mm 1 mps 726 mmHg 27%
    01:00 +31°C° 0 mm 1 mps 726 mmHg 28%
    02:00 +30°C° 0 mm 1 mps 726 mmHg 28%
    03:00 +30°C° 0 mm 1 mps 726 mmHg 29%
    04:00 +29°C° 0 mm 1 mps 726 mmHg 29%
    05:00 +29°C° 0 mm 1 mps 726 mmHg 31%
    06:00 +30°C° 0 mm 1 mps 726 mmHg 29%
    07:00 +31°C° 0 mm 1 mps 727 mmHg 26%
    08:00 +32°C° 0 mm 1 mps 727 mmHg 23%
    09:00 +33°C° 0 mm 1 mps 727 mmHg 21%
    10:00 +35°C° 0 mm 1 mps 727 mmHg 18%
    11:00 +36°C° 0 mm 1 mps 727 mmHg 15%
    12:00 +37°C° 0 mm 1 mps 727 mmHg 14%
    13:00 +39°C° 0 mm 1 mps 727 mmHg 14%
    14:00 +40°C° 0 mm 1 mps 726 mmHg 13%
    15:00 +40°C° 0 mm 1 mps 726 mmHg 14%
    16:00 +40°C° 0 mm 2 mps 726 mmHg 15%
    17:00 +39°C° 0 mm 2 mps 726 mmHg 16%
    18:00 +38°C° 0 mm 2 mps 726 mmHg 18%
    19:00 +35°C° 0 mm 1 mps 727 mmHg 21%
    20:00 +34°C° 0 mm 1 mps 727 mmHg 24%
    21:00 +33°C° 0 mm 1 mps 727 mmHg 25%
    22:00 +33°C° 0 mm 1 mps 727 mmHg 25%
    23:00 +32°C° 0 mm 1 mps 728 mmHg 26%

    Tomorrow, 21 September, Friday

    Time Temperature Precipitation Wind Pressure Humidity
    00:00 +31°C° 0 mm 1 mps 727 mmHg 27%
    01:00 +31°C° 0 mm 1 mps 727 mmHg 28%
    02:00 +30°C° 0 mm 1 mps 727 mmHg 29%
    03:00 +30°C° 0 mm 1 mps 728 mmHg 29%
    04:00 +29°C° 0 mm 1 mps 728 mmHg 29%
    05:00 +29°C° 0 mm 1 mps 728 mmHg 29%
    06:00 +30°C° 0 mm 1 mps 728 mmHg 27%
    07:00 +31°C° 0 mm 1 mps 729 mmHg 25%
    08:00 +32°C° 0 mm 1 mps 729 mmHg 23%
    09:00 +33°C° 0 mm 1 mps 729 mmHg 21%
    10:00 +36°C° 0 mm 2 mps 729 mmHg 19%
    11:00 +37°C° 0 mm 2 mps 729 mmHg 17%
    12:00 +38°C° 0 mm 2 mps 729 mmHg 16%
    13:00 +39°C° 0 mm 1 mps 728 mmHg 16%
    14:00 +40°C° 0 mm 1 mps 728 mmHg 15%
    15:00 +40°C° 0 mm 2 mps 728 mmHg 16%
    16:00 +40°C° 0 mm 2 mps 728 mmHg 17%
    17:00 +39°C° 0 mm 2 mps 727 mmHg 18%
    18:00 +38°C° 0 mm 2 mps 728 mmHg 20%
    19:00 +36°C° 0 mm 1 mps 728 mmHg 23%
    20:00 +34°C° 0 mm 1 mps 728 mmHg 25%
    21:00 +34°C° 0 mm 1 mps 728 mmHg 26%
    22:00 +33°C° 0 mm 1 mps 729 mmHg 27%
    23:00 +32°C° 0 mm 1 mps 729 mmHg 27%

    Day after tomorrow, 22 September, Saturday

    Time Temperature Precipitation Wind Pressure Humidity
    00:00 +32°C° 0 mm 1 mps 729 mmHg 28%
    01:00 +31°C° 0 mm 1 mps 729 mmHg 29%
    02:00 +30°C° 0 mm 1 mps 729 mmHg 31%
    03:00 +30°C° 0 mm 1 mps 729 mmHg 31%
    04:00 +30°C° 0 mm 1 mps 729 mmHg 32%
    05:00 +29°C° 0 mm 1 mps 729 mmHg 32%
    06:00 +30°C° 0 mm 1 mps 729 mmHg 31%
    07:00 +30°C° 0 mm 1 mps 730 mmHg 29%
    08:00 +31°C° 0 mm 1 mps 730 mmHg 28%
    09:00 +32°C° 0 mm 1 mps 730 mmHg 27%
    10:00 +34°C° 0 mm 1 mps 730 mmHg 26%
    11:00 +35°C° 0 mm 1 mps 730 mmHg 25%
    12:00 +36°C° 0 mm 1 mps 729 mmHg 23%
    13:00 +37°C° 0 mm 1 mps 729 mmHg 22%
    14:00 +39°C° 0 mm 1 mps 728 mmHg 21%
    15:00 +39°C° 0 mm 2 mps 728 mmHg 21%
    16:00 +39°C° 0 mm 2 mps 727 mmHg 21%
    17:00 +39°C° 0 mm 2 mps 727 mmHg 22%
    18:00 +37°C° 0 mm 2 mps 728 mmHg 24%
    19:00 +36°C° 0 mm 2 mps 728 mmHg 27%
    20:00 +35°C° 0 mm 2 mps 729 mmHg 30%
    21:00 +34°C° 0.1 mm 2 mps 729 mmHg 32%
    22:00 +32°C° 0.1 mm 2 mps 729 mmHg 34%
    23:00 +32°C° 0.1 mm 2 mps 730 mmHg 37%

    23 September, Sunday

    Time Temperature Precipitation Wind Pressure Humidity
    00:00 +31°C° 0.4 mm 2 mps 730 mmHg 41%
    01:00 +30°C° 0.4 mm 2 mps 730 mmHg 46%
    02:00 +29°C° 0.4 mm 3 mps 730 mmHg 51%
    03:00 +29°C° 0.7 mm 2 mps 730 mmHg 54%
    04:00 +28°C° 0.7 mm 2 mps 730 mmHg 58%
    05:00 +27°C° 0.7 mm 2 mps 730 mmHg 61%
    06:00 +28°C° 0.4 mm 1 mps 730 mmHg 61%
    07:00 +28°C° 0.4 mm 1 mps 730 mmHg 60%
    08:00 +28°C° 0.4 mm 1 mps 731 mmHg 59%
    09:00 +30°C° 0.1 mm 1 mps 731 mmHg 55%
    10:00 +31°C° 0.1 mm 1 mps 730 mmHg 52%
    11:00 +32°C° 0.1 mm 1 mps 730 mmHg 48%
    12:00 +33°C° 0 mm 1 mps 729 mmHg 44%
    13:00 +34°C° 0 mm 1 mps 729 mmHg 40%
    14:00 +35°C° 0 mm 1 mps 728 mmHg 36%
    15:00 +36°C° 0 mm 2 mps 728 mmHg 36%
    16:00 +36°C° 0 mm 2 mps 728 mmHg 35%
    17:00 +36°C° 0 mm 2 mps 727 mmHg 35%
    18:00 +35°C° 0 mm 2 mps 728 mmHg 38%
    19:00 +34°C° 0 mm 2 mps 728 mmHg 41%
    20:00 +32°C° 0 mm 2 mps 729 mmHg 44%
    21:00 +32°C° 0.4 mm 2 mps 729 mmHg 48%
    22:00 +31°C° 0.4 mm 2 mps 729 mmHg 51%
    23:00 +30°C° 0.4 mm 2 mps 729 mmHg 55%

    24 September, Monday

    Time Temperature Precipitation Wind Pressure Humidity
    00:00 +30°C° 0.4 mm 2 mps 729 mmHg 57%
    01:00 +29°C° 0.4 mm 2 mps 728 mmHg 60%
    02:00 +29°C° 0.4 mm 1 mps 728 mmHg 62%
    03:00 +28°C° 0 mm 1 mps 728 mmHg 63%
    04:00 +28°C° 0 mm 1 mps 728 mmHg 65%
    05:00 +27°C° 0 mm 1 mps 727 mmHg 66%
    06:00 +28°C° 0 mm 1 mps 727 mmHg 63%
    07:00 +29°C° 0 mm 1 mps 727 mmHg 60%
    08:00 +29°C° 0 mm 1 mps 727 mmHg 57%
    09:00 +30°C° 0 mm 1 mps 727 mmHg 51%
    10:00 +32°C° 0 mm 1 mps 727 mmHg 44%
    11:00 +33°C° 0 mm 1 mps 727 mmHg 38%
    12:00 +34°C° 0 mm 1 mps 727 mmHg 34%
    13:00 +36°C° 0 mm 2 mps 726 mmHg 31%
    14:00 +37°C° 0 mm 2 mps 726 mmHg 28%
    15:00 +37°C° 0 mm 2 mps 726 mmHg 29%
    16:00 +37°C° 0 mm 3 mps 726 mmHg 29%
    17:00 +37°C° 0 mm 3 mps 726 mmHg 30%
    18:00 +36°C° 0 mm 3 mps 726 mmHg 34%
    19:00 +35°C° 0 mm 2 mps 727 mmHg 37%
    20:00 +34°C° 0 mm 2 mps 727 mmHg 40%
    21:00 +32°C° 0.1 mm 2 mps 727 mmHg 42%
    22:00 +31°C° 0.1 mm 1 mps 728 mmHg 45%
    23:00 +31°C° 0.1 mm 1 mps 728 mmHg 47%

    25 September, Tuesday

    Time Temperature Precipitation Wind Pressure Humidity
    00:00 +30°C° 0.1 mm 1 mps 728 mmHg 49%
    01:00 +30°C° 0.1 mm 1 mps 727 mmHg 51%
    02:00 +29°C° 0.1 mm 1 mps 727 mmHg 53%
    03:00 +29°C° 0 mm 1 mps 727 mmHg 55%
    04:00 +28°C° 0 mm 1 mps 727 mmHg 57%
    05:00 +28°C° 0 mm 1 mps 727 mmHg 59%
    06:00 +28°C° 0 mm 1 mps 728 mmHg 56%
    07:00 +29°C° 0 mm 1 mps 728 mmHg 54%
    08:00 +29°C° 0 mm 1 mps 728 mmHg 51%
    09:00 +31°C° 0 mm 1 mps 728 mmHg 46%
    10:00 +32°C° 0 mm 1 mps 728 mmHg 41%
    11:00 +34°C° 0 mm 1 mps 728 mmHg 36%
    12:00 +34°C° 0 mm 1 mps 727 mmHg 33%
    13:00 +35°C° 0 mm 1 mps 727 mmHg 30%
    14:00 +37°C° 0 mm 2 mps 726 mmHg 27%
    15:00 +37°C° 0 mm 2 mps 726 mmHg 28%
    16:00 +37°C° 0 mm 2 mps 726 mmHg 28%
    17:00 +37°C° 0 mm 2 mps 726 mmHg 28%
    18:00 +36°C° 0 mm 2 mps 726 mmHg 31%
    19:00 +35°C° 0 mm 2 mps 726 mmHg 34%
    20:00 +34°C° 0 mm 2 mps 727 mmHg 38%
    21:00 +32°C° 0 mm 1 mps 727 mmHg 39%
    22:00 +32°C° 0 mm 1 mps 727 mmHg 41%
    23:00 +31°C° 0 mm 1 mps 727 mmHg 42%
    Show more